Location: Dunedin
(45.8670°S, 170.5000°E)
Time: 16:39:43
(UTC+13:00)

Cosmos 2322 - Pass Details

Date: 24 January 2019
Orbit: 839 x 856 km, 71.0° (Epoch: 19 February)

Event Time Altitude Azimuth Distance (km) Brightness Sun altitude
Exits shadow 23:18:16 14° 352° (N) 2,197 5.5 -16.4°
Maximum altitude 23:23:06 61° 69° (ENE) 968 3.7 -16.9°
Drops below altitude 10° 23:28:44 10° 148° (SSE) 2,495 6.4 -17.5°
Sets 23:31:14 0° 150° (SSE) 3,435 7.2 -17.7°
